Location: Rumah Geringgi
(3.1667°N, 113.1667°E)
Time: 21:46:55
(UTC+00:00)

USA 267 - Pass Details

Date: 03 August 2024
Orbit: 1099 x 1109 km, 123.0° (Epoch: 17 September)

Event Time Altitude Azimuth Distance (km) Brightness Sun altitude
Exits shadow 12:05:04 23° 152° (SSE) 2,126 4.3 -20.8°
Maximum altitude 12:09:21 75° 234° (SW) 1,137 3.3 -21.8°
Drops below altitude 10° 12:15:52 10° 319° (NW) 2,957 6.3 -23.3°
Sets 12:18:21 0° 320° (NW) 3,915 7.1 -23.9°
